This is the latest recevied weather packets stored in our database for station/object K0SDS. If no packets are shown the sender has not sent any weather packets the latest 10 day(s).
| Time | Temp. | Humidity | Pressure | Rain* | Wind** | Luminosity | Snow |
|---|---|---|---|---|---|---|---|
| 1777748325 | 16.11° C | 39% | 1020.9 hPa | 0 mm | - | 640 W/m² | - |
| 1777748020 | 16.67° C | 34% | 1020.8 hPa | 0 mm | - | 636 W/m² | - |
| 1777747718 | 16.67° C | 43% | 1020.9 hPa | 0 mm | - | 635 W/m² | - |
| 1777747413 | 16.67° C | 33% | 1020.9 hPa | 0 mm | - | 614 W/m² | - |
| 1777747110 | 16.67° C | 35% | 1020.7 hPa | 0 mm | - | 601 W/m² | - |
| 1777746806 | 16.67° C | 41% | 1021 hPa | 0 mm | - | 604 W/m² | - |
| 1777746501 | 16.11° C | 35% | 1021.1 hPa | 0 mm | - | 627 W/m² | - |
| 1777746197 | 15.56° C | 40% | 1021 hPa | 0 mm | - | 628 W/m² | - |
| 1777745894 | 16.11° C | 38% | 1021.1 hPa | 0 mm | - | 629 W/m² | - |
| 1777745593 | 16.11° C | 37% | 1021.1 hPa | 0 mm | - | 647 W/m² | - |
| 1777745289 | 16.67° C | 36% | 1021.4 hPa | 0 mm | - | 692 W/m² | - |
| 1777744986 | 15.56° C | 41% | 1021.4 hPa | 0 mm | - | 731 W/m² | - |
| 1777744681 | 15.56° C | 37% | 1021.5 hPa | 0 mm | - | 751 W/m² | - |
| 1777744370 | 15.56° C | 37% | 1021.6 hPa | 0 mm | - | 750 W/m² | - |
| 1777744068 | 16.11° C | 46% | 1021.5 hPa | 0 mm | - | 727 W/m² | - |
| 1777743765 | 16.11° C | 38% | 1021.8 hPa | 0 mm | - | 719 W/m² | - |
| 1777743462 | 15.56° C | 40% | 1021.7 hPa | 0 mm | - | 692 W/m² | - |
| 1777743159 | 16.11° C | 37% | 1021.8 hPa | 0 mm | - | 672 W/m² | - |
| 1777742857 | 16.11° C | 43% | 1021.9 hPa | 0 mm | - | 664 W/m² | - |
| 1777742553 | 15° C | 43% | 1021.7 hPa | 0 mm | - | 648 W/m² | - |
| 1777742248 | 15.56° C | 39% | 1021.8 hPa | 0 mm | - | 680 W/m² | - |
| 1777741946 | 15° C | 39% | 1021.9 hPa | 0 mm | - | 699 W/m² | - |
| 1777741637 | 15.56° C | 42% | 1021.9 hPa | 0 mm | - | 704 W/m² | - |
| 1777741334 | 15° C | 43% | 1022.2 hPa | 0 mm | - | 725 W/m² | - |
| 1777741030 | 15.56° C | 40% | 1022 hPa | 0 mm | - | 729 W/m² | - |
* Rain latest hour (hover to see other rain measurements)
** Current wind speed in m/s (hover to see current wind gust speed)